• MPC Preparation (Info)

  • MPEC 2015-T59 : 2015 TW24

    The following Minor Planet Electronic Circular may be linked-to from your own Web pages, but must not otherwise be redistributed electronically.

    A form allowing access to any MPEC is at the bottom of this page.


    Read MPEC 2015-T58 Read MPEC 2015-T60


    M.P.E.C. 2015-T59                                Issued 2015 Oct. 11, 15:52 UT
    
         The Minor Planet Electronic Circulars contain information on unusual
             minor planets and routine data on comets.  They are published
        on behalf of Division F of the International Astronomical Union by the
              Minor Planet Center, Smithsonian Astrophysical Observatory,
                              Cambridge, MA 02138, U.S.A.
    
                 Prepared using the Tamkin Foundation Computer Network
    
                                  MPC@CFA.HARVARD.EDU
                URL https://www.minorplanetcenter.net/    ISSN 1523-6714
    
                                       2015 TW24
    
    Observations:
         K15T24W* C2015 10 08.41262 01 15 53.01 -09 06 37.4          20.6 VqET059G96
         K15T24W  C2015 10 08.41706 01 15 52.83 -09 06 34.6          20.7 VqET059G96
         K15T24W  C2015 10 08.42149 01 15 52.63 -09 06 32.0          20.6 VqET059G96
         K15T24W  C2015 10 08.42592 01 15 52.47 -09 06 28.5          20.9 VqET059G96
         K15T24W KC2015 10 08.47409 01 15 51.57 -09 05 39.3          20.4 RtET059474
         K15T24W KC2015 10 08.47761 01 15 51.39 -09 05 36.7          20.7 RtET059474
         K15T24W KC2015 10 08.48112 01 15 51.26 -09 05 35.2          20.5 RtET059474
         K15T24W KC2015 10 08.48464 01 15 51.11 -09 05 32.3          20.6 RtET059474
         K15T24W  C2015 10 08.89624901 15 36.43 -09 00 57.3          20.7 RqET059K92
         K15T24W  C2015 10 08.89889601 15 36.31 -09 00 55.1          20.6 RqET059K92
         K15T24W  C2015 10 08.90158401 15 36.19 -09 00 53.6          21.2 RqET059K92
         K15T24W  C2015 10 08.90428101 15 36.07 -09 00 51.7          20.4 RqET059K92
         K15T24W  C2015 10 08.90690801 15 35.96 -09 00 49.7          20.6 RqET059K92
         K15T24W  C2015 10 08.93512901 15 34.81 -09 00 30.6          20.5 RqET059K92
         K15T24W  C2015 10 08.93789201 15 34.68 -09 00 28.9          20.7 RqET059K92
         K15T24W  C2015 10 08.94053201 15 34.59 -09 00 27.1          20.6 RqET059K92
         K15T24W  C2015 10 08.94845601 15 34.25 -09 00 21.6          20.6 RqET059K92
         K15T24W |C2015 10 09.22203 01 15 24.28 -08 57 15.4          20.9 VuET059807
         K15T24W |C2015 10 09.22866 01 15 24.01 -08 57 10.9          20.8 VuET059807
         K15T24W |C2015 10 09.23529 01 15 23.72 -08 57 06.6          20.8 VuET059807
         K15T24W |C2015 10 11.20057 01 14 12.17 -08 33 59.7          21.0 VuET059807
         K15T24W |C2015 10 11.20653 01 14 11.91 -08 33 55.1          20.7 VuET059807
    
    Observer details:
    474 Mount John Observatory, Lake Tekapo.  Observers A. C. Gilmore,
        P. M. Kilmartin.  Measurer P. M. Kilmartin.  1.0-m f/7.7 reflector + CCD.
    807 Cerro Tololo.  Observers T. Linder, R. Holmes.  0.61-m f/6.5 astrograph
        + CCD.
    G96 Mt. Lemmon Survey.  Observer E. J. Christensen.  Measurers
        E. J. Christensen, D. C. Fuls, A. R. Gibbs, A. D. Grauer, R. E. Hill,
        J. A. Johnson, R. A. Kowalski, S. M. Larson, R. G. Matheny, F. C. Shelly.
        1.5-m reflector + CCD.
    K92 Sutherland-LCOGT B.  Observers T. Lister, S. Greenstreet, E. Gomez.
        Measurer T. Lister.  1.0-m f/8 Ritchey-Chretien + CCD.
    
    Orbital elements:
    2015 TW24
    Epoch 2016 Jan. 13.0 TT = JDT 2457400.5                 MPC
    M  14.79938              (2000.0)            P               Q
    n   0.16651984     Peri.  329.02306     +0.94175835     -0.30720931
    a   3.2720911      Node    49.50957     +0.33344435     +0.80022762
    e   0.5121936      Incl.   10.36250     +0.04365854     +0.51503223
    P   5.92           H   20.3           G   0.15           U   7
    Residuals in seconds of arc
    151008 G96  0.0   0.3+    151008 K92  0.5+  0.2-    151008 K92  0.1-  0.1+
    151008 G96  0.0   0.1+    151008 K92  0.3+  0.2+    151009 807  0.0   0.1+
    151008 G96  0.4-  0.3-    151008 K92  0.1+  0.1-    151009 807  0.0   0.1+
    151008 G96  0.2-  0.2+    151008 K92  0.0   0.0     151009 807  0.2-  0.2-
    151008 474  0.5+  0.1-    151008 K92  0.0   0.2+    151011 807  0.1+  0.2-
    151008 474  0.1-  0.2+    151008 K92  0.1+  0.2+    151011 807  0.1-  0.1+
    151008 474  0.0   0.7-    151008 K92  0.2-  0.0
    151008 474  0.1-  0.1-    151008 K92  0.1+  0.0
    
    Ephemeris:
    2015 TW24                a,e,i = 3.27, 0.51, 10                  q = 1.5961
    Date    TT    R. A. (2000) Decl.     Delta      r     Elong.  Phase     V
    2015 09 11    01 23 38.2 -12 15 58   0.6913  1.6322   147.4    19.4    21.5
    ...
    2015 09 26    01 22 01.4 -10 58 59   0.6333  1.6081   158.2    13.4    21.1
    ...
    2015 10 04    01 18 24.3 -09 52 20   0.6172  1.6005   162.8    10.7    20.9
    ...
    2015 10 10    01 14 56.2 -08 48 22   0.6126  1.5973   164.4     9.7    20.9
    2015 10 11    01 14 19.6 -08 36 31   0.6124  1.5969   164.4     9.7    20.9
    2015 10 12    01 13 42.8 -08 24 19   0.6125  1.5967   164.4     9.7    20.9
    ...
    2015 10 18    01 10 04.0 -07 04 14   0.6166  1.5963   162.9    10.6    20.9
    ...
    2015 10 26    01 05 50.7 -05 00 58   0.6325  1.5990   158.2    13.3    21.1
    ...
    2015 11 10    01 02 15.7 -00 36 17   0.6932  1.6144   146.5    19.8    21.5
    
    A. U. Tomatic                (C) Copyright 2015 MPC           M.P.E.C. 2015-T59
    

    Read MPEC 2015-T58 Read MPEC 2015-T60


    MPEC number:

    Enter an MPEC number in one of the following forms:

    • 1997-B01 (the full form)
    • J97B01 (the packed version of the full form)
    • B01 (the abbreviated form)